Home > Weather > Iasi > Past weeks

Flag for Romania Past Weather in Iasi, Romania — Yesterday and Last 2 Weeks

Now
73 °F

Scattered clouds.


Feels Like: 77 °F
Forecast: 55 / 83 °F
Wind: 9 mph from North

Location: Iasi Airport

Current Time: Aug 26, 2016 at 11:49:03 AM

Latest Report: Aug 26, 2016 at 11:00 AM


Visibility: N/A

Pressure: 30.24 "Hg

Humidity: 47%

Dew Point: 52 °F

Location of IasiLocation

Past Weather in Iasi — Graph

°F

Iasi Temperature Yesterday

Maximum temperature yesterday: 79 °F (at 4:00 PM)
Minimum temperature yesterday: 59 °F (at 5:30 AM)
Average temperature yesterday: 70 °F

High & Low Weather Summary for the Past Weeks

 TemperatureHumidityPressure
High93 °F (Aug 21, 5:00 PM)94% (Aug 16, 6:30 AM)30.24 "Hg (Aug 16, 6:30 AM)
Low50 °F (Aug 14, 6:00 AM)25% (Aug 13, 3:30 PM)29.80 "Hg (Aug 17, 6:00 PM)
Average70 °F59%30.05 "Hg
* Reported Aug 11 10:00 AM — Aug 26 10:30 AM, Iasi, Weather by CustomWeather, © 2016

Note: Actual official high and low records may vary slightly from our data, if they occured in-between our weather recording intervals... More about our weather records

Advertising

Iasi Weather History for the Previous 24 Hours

Scroll right to see more
 ConditionsComfort  
Time TempWeatherWind HumidityBarometerVisibility
10:30 AM
Fri, Aug 26
72 °FPassing clouds.10 mph50%30.24 "HgN/A
10:00 AM70 °FPassing clouds.9 mph50%30.24 "HgN/A
9:30 AM66 °FSunny.6 mph56%30.24 "Hg10 mi
9:00 AM64 °FPassing clouds.6 mph60%30.24 "HgN/A
8:30 AM61 °FSunny.8 mph68%30.24 "Hg10 mi
8:00 AM59 °FSunny.5 mph72%30.24 "Hg10 mi
7:30 AM57 °FPassing clouds.3 mph77%30.24 "HgN/A
7:00 AM55 °FClear.3 mph77%30.24 "Hg10 mi
6:30 AM55 °FClear.3 mph77%30.21 "Hg10 mi
6:00 AM55 °FClear.3 mph77%30.21 "Hg10 mi
5:30 AM55 °FClear.3 mph77%30.21 "Hg10 mi
5:00 AM55 °FClear.5 mph77%30.21 "Hg10 mi
4:00 AM57 °FClear.5 mph72%30.18 "Hg10 mi
3:00 AM57 °FClear.3 mph77%30.18 "Hg10 mi
2:00 AM59 °FPassing clouds.3 mph72%30.18 "HgN/A
1:00 AM61 °FClear.7 mph63%30.18 "Hg10 mi
12:00 AM66 °FClear.7 mph49%30.18 "Hg10 mi
11:00 PM
Thu, Aug 25
64 °FClear.9 mph52%30.18 "Hg10 mi
10:00 PM64 °FClear.9 mph52%30.15 "Hg10 mi
9:00 PM72 °FSunny.9 mph38%30.15 "Hg10 mi
8:30 PM72 °FSunny.8 mph38%30.15 "Hg10 mi
8:00 PM73 °FSunny.9 mph36%30.12 "Hg10 mi
7:30 PM75 °FSunny.9 mph34%30.12 "Hg10 mi
7:00 PM77 °FSunny.13 mph34%30.12 "Hg10 mi
6:30 PM77 °FSunny.16 mph34%30.12 "Hg10 mi
6:00 PM77 °FSunny.14 mph34%30.12 "Hg10 mi
5:30 PM77 °FSunny.16 mph34%30.12 "Hg10 mi
5:00 PM79 °FSunny.15 mph32%30.12 "Hg10 mi
4:30 PM79 °FSunny.17 mph32%30.12 "Hg10 mi
4:00 PM79 °FSunny.15 mph32%30.12 "Hg10 mi
3:30 PM77 °FSunny.18 mph32%30.12 "Hg10 mi
3:00 PM77 °FPassing clouds.14 mph34%30.12 "HgN/A
2:30 PM77 °FSunny.12 mph36%30.12 "Hg10 mi
2:00 PM77 °FPassing clouds.16 mph34%30.12 "HgN/A
1:30 PM77 °FSunny.15 mph42%30.12 "Hg10 mi
1:00 PM75 °FSunny.14 mph39%30.15 "Hg10 mi
12:30 PM73 °FPassing clouds.14 mph44%30.15 "HgN/A
12:00 PM72 °FPassing clouds.13 mph50%30.15 "HgN/A
11:30 AM73 °FPassing clouds.13 mph50%30.15 "HgN/A
11:00 AM72 °FSunny.12 mph53%30.15 "Hg10 mi
Weather by CustomWeather, © 2016

See weather overviewHow to use our weather pages